Location: USNO
(38.9242°N, 77.0663°W)
Time: 07:09:52
(UTC-04:00)

OTV 5 (USA 277) - Pass Details

Date: 16 October 2017
Orbit: 404 x 417 km, 43.0° (Epoch: 07 September)

Event Time Altitude Azimuth Distance (km) Brightness Sun altitude
Rises 21:05:27 0° 290° (WNW) 2,356 ? -31.2°
Reaches altitude 10° 21:07:35 10° 293° (WNW) 1,491 ? -31.6°
Enters shadow 21:07:46 11° 293° (WNW) 1,417 ? -31.7°
